Wind_Speed
5 7 3 2 3 4 6 7 7 8 8 10 12 13 14 16 16 18 19 19 18 19 18 16 13 16 16 17 14 15 11 16 12 16 4 11 9 9 10 9 13 17 23
8 7 6 5 2 2 5 8 9 10 10 11 12 15 16 17 16 19 20 21 21 20 19 19 18 19 20 19 19 20 13 16 17 15 19 12 5 16 12 10 13 17 19
7 7 6 5 4 3 3 5 5 7 9 10 11 13 16 18 18 19 20 22 23 22 22 22 21 22 19 21 18 19 21 20 18 19 21 19 16 14 10 8 12 17 20
8 7 7 7 7 6 5 5 6 6 8 9 10 13 14 15 17 18 20 21 23 23 23 23 22 23 22 22 23 25 21 21 13 14 19 21 18 17 16 12 16 19 21
6 7 8 7 8 8 7 7 7 8 9 10 11 11 11 12 16 18 18 21 22 24 25 25 26 27 27 26 25 24 25 24 23 22 21 20 22 19 14 17 19 22 20
5 7 8 9 9 9 10 11 11 11 12 12 12 13 13 14 8 9 13 15 19 21 23 25 27 29 27 31 30 29 28 28 30 21 20 18 18 18 21 19 20 15 9
8 10 10 11 12 12 13 13 13 14 15 15 16 16 17 17 18 18 17 16 18 19 21 24 25 27 29 30 31 33 35 36 33 26 25 26 19 18 22 19 17 18 17
9 10 10 11 12 14 14 14 14 13 14 14 16 17 19 20 20 21 21 19 21 22 23 23 23 25 27 28 24 27 28 29 36 38 36 33 29 24 23 23 21 19 21
9 8 10 11 13 13 15 15 15 16 16 16 16 17 18 20 20 21 20 21 23 24 24 25 25 24 25 28 29 28 28 28 30 34 36 39 39 35 28 24 22 19 20
8 10 11 12 13 15 15 16 16 17 18 18 18 18 20 21 21 22 23 23 25 26 26 27 30 32 32 30 28 23 26 32 29 32 24 36 37 36 36 34 27 25 24
9 10 10 11 13 14 15 15 16 18 18 18 18 19 21 23 24 23 23 23 24 26 26 26 26 26 29 30 32 29 30 29 26 29 29 26 30 31 34 34 35 33 28
10 11 11 12 12 12 13 15 16 17 17 16 17 20 20 20 17 17 18 24 25 22 23 28 29 31 24 16 19 27 27 26 28 26 24 24 26 28 34 35 37 41 40
10 12 12 12 12 12 14 14 15 14 14 14 12 15 18 17 18 21 21 13 13 23 25 25 29 35 39 36 31 28 28 23 25 26 29 30 30 31 36 35 33 34 40
8 9 10 11 13 13 13 15 15 15 14 15 15 14 15 17 18 17 17 17 20 20 20 18 21 25 27 31 33 28 20 22 26 28 28 29 30 30 30 32 30 24 23
8 9 10 10 11 12 12 12 13 15 16 18 18 17 17 17 18 24 26 26 25 26 31 27 27 25 24 24 24 22 24 22 21 24 24 24 25 26 27 28 26 26 20
8 9 10 11 11 11 14 14 12 13 17 15 15 14 15 17 20 23 24 23 24 24 24 22 25 25 26 24 23 21 23 26 26 25 24 24 24 26 27 24 23 22 24
7 8 8 9 10 11 13 14 15 16 15 11 10 12 12 19 28 30 29 30 33 29 22 21 25 26 26 26 24 23 24 25 27 32 28 29 26 24 24 26 27 28 28
7 4 9 7 8 10 11 12 14 15 15 15 15 17 19 26 27 23 24 22 18 13 16 20 25 26 25 24 26 27 24 23 24 24 27 28 19 22 24 24 26 24 24
6 7 10 7 5 7 7 10 10 12 14 16 17 17 24 30 22 23 24 20 22 20 22 25 25 25 26 24 24 25 24 25 22 21 23 24 23 24 25 26 26 24 24
4 3 8 9 10 10 11 12 11 11 12 15 17 19 27 25 24 25 24 23 23 24 25 26 27 30 28 26 26 23 24 25 23 21 22 23 23 22 24 26 27 27 25
7 7 7 8 10 10 11 12 12 13 13 14 14 14 23 18 19 21 22 23 24 25 27 27 27 27 26 17 18 19 24 21 19 21 22 20 21 22 25 26 26 28 29
8 9 9 9 11 12 11 12 11 13 14 14 14 14 18 15 17 19 21 21 24 25 27 26 25 28 29 28 26 24 23 19 17 14 16 17 19 23 25 23 23 22 23
7 9 9 10 11 12 10 12 12 13 13 13 15 15 15 16 17 17 18 21 24 25 25 26 28 29 32 30 29 26 24 25 25 22 21 18 21 18 20 20 19 21 22
5 8 9 9 11 12 12 13 12 11 13 13 13 14 15 16 16 17 18 17 18 25 24 25 27 27 28 30 29 28 27 28 28 23 21 23 26 26 25 22 24 26 28
6 5 7 9 10 13 13 14 13 12 13 13 13 13 14 15 16 16 17 17 18 17 24 23 25 29 30 31 31 30 30 28 27 24 22 20 22 24 24 23 26 27 30
8 5 8 7 10 11 13 14 15 13 13 12 13 13 13 14 15 16 17 18 19 18 19 18 19 19 27 34 30 29 28 29 32 31 27 20 18 18 19 21 25 28 31
Wind_Direction
42 39 42 268 262 240 248 251 256 250 238 227 228 232 227 230 226 226 234 245 230 230 244 263 238 252 262 273 261 254 254 270 286 279 169 236 203 238 231 218 241 248 247
80 73 61 61 77 317 288 272 270 263 250 232 232 237 241 238 232 229 229 234 234 243 243 241 246 245 235 248 268 274 273 273 289 295 275 278 282 227 232 224 248 255 250
81 69 48 37 19 8 346 335 313 295 276 269 246 244 244 242 239 235 236 238 242 242 242 243 240 245 249 250 254 262 247 236 246 254 270 276 270 216 214 233 254 258 262
47 42 30 11 5 4 350 340 324 317 307 294 280 272 258 253 253 249 245 242 243 244 244 246 244 244 244 244 248 253 264 271 251 256 266 277 272 262 245 230 239 252 257
17 3 1 349 340 332 328 325 318 316 312 305 296 292 282 266 258 255 255 256 255 254 255 255 250 245 244 241 242 246 243 250 248 248 238 250 266 271 259 241 255 250 249
342 337 339 332 330 324 318 315 309 301 296 290 285 285 284 280 323 266 256 268 266 263 261 257 256 256 253 250 247 248 247 246 251 262 271 242 232 261 268 257 237 240 262
325 322 323 321 321 320 317 312 304 299 295 289 285 281 280 279 280 288 289 281 277 273 265 263 260 253 249 245 250 247 245 242 238 242 247 256 266 234 252 276 266 272 274
304 306 314 315 315 315 314 311 309 303 297 291 287 284 282 278 278 280 282 277 275 272 271 270 264 259 259 259 255 254 247 241 242 244 242 244 243 245 246 246 249 259 268
301 316 316 313 309 309 308 309 308 303 299 296 290 285 281 280 281 281 281 273 272 271 269 267 265 266 263 259 260 257 257 251 247 245 246 243 244 242 240 241 243 240 247
334 327 325 319 312 310 307 302 304 302 296 296 299 298 296 291 283 279 278 277 275 273 272 263 257 254 258 260 262 265 259 255 253 257 259 250 242 241 244 240 240 242 241
323 321 312 309 313 305 304 309 309 303 298 295 298 297 295 292 286 281 273 268 272 277 274 273 271 266 256 257 251 251 254 262 264 261 255 254 243 240 240 240 236 236 244
324 318 318 312 309 309 306 306 308 302 298 297 306 307 307 304 302 318 308 282 268 269 279 276 281 287 291 305 270 260 261 264 265 266 258 251 246 241 246 240 226 226 231
326 322 320 317 315 316 316 308 307 307 312 304 304 311 313 316 311 308 311 321 304 281 278 283 283 279 279 285 282 274 268 260 261 257 250 249 250 250 246 258 269 244 228
326 331 332 328 328 323 321 322 329 320 320 332 322 305 304 303 302 296 307 314 312 303 294 292 291 290 278 271 272 272 261 258 251 251 249 251 250 241 246 245 255 266 265
334 334 333 330 330 328 324 317 314 309 318 317 306 303 303 305 306 312 308 304 299 295 297 293 283 274 273 273 269 266 261 252 245 244 245 245 258 262 247 246 245 254 267
344 348 344 337 335 334 330 331 331 331 325 317 324 329 324 313 315 314 312 304 295 296 297 279 274 272 271 267 261 256 254 251 242 239 236 232 235 244 252 251 254 233 229
348 343 340 338 339 339 340 340 339 343 343 342 348 356 353 340 328 323 314 302 291 287 283 275 267 269 268 268 266 250 248 251 250 247 251 237 234 246 250 254 249 241 233
342 316 334 346 346 342 342 344 344 351 346 350 354 356 347 337 340 346 339 335 315 284 262 271 272 273 269 264 266 264 266 259 253 253 253 254 241 246 246 245 246 247 249
332 355 336 321 316 322 333 340 352 350 352 354 350 355 352 348 355 352 358 349 338 322 311 305 293 291 293 292 269 263 267 268 262 259 258 261 261 257 262 265 266 263 271
348 64 350 332 340 344 343 336 349 357 358 357 356 358 353 354 357 355 355 352 345 343 335 337 300 297 297 294 279 278 266 263 264 263 258 254 253 254 256 258 258 265 267
352 355 353 344 348 350 351 342 347 353 355 1 2 358 352 354 351 349 349 354 350 349 347 348 345 356 347 344 341 306 288 257 264 266 267 262 256 256 257 257 259 261 266
360 350 357 354 348 346 347 337 351 356 356 353 355 358 356 356 359 355 354 357 359 0 2 355 358 6 12 6 359 347 338 341 325 303 283 280 275 275 271 267 266 268 270
19 356 5 3 360 334 351 342 355 359 351 351 352 352 353 357 350 352 355 358 5 5 6 4 2 2 12 11 9 6 358 340 322 312 307 294 289 299 275 272 275 281 281
8 358 356 360 5 348 360 340 350 358 354 353 351 349 350 354 353 353 351 350 359 9 12 15 13 8 6 2 3 1 2 353 342 325 307 295 287 284 284 285 282 283 274
317 2 339 353 351 353 354 354 347 348 352 350 348 349 351 354 355 356 352 350 349 347 357 6 8 12 13 7 2 359 359 354 349 346 328 300 282 278 275 270 269 270 269
304 337 321 338 339 350 343 351 350 342 344 343 345 349 346 354 355 355 355 355 356 357 0 359 356 353 360 6 3 1 358 357 358 354 347 331 307 288 281 280 276 276 277
Height
794 797 801 802 803 804 804 804 804 804 805 805 807 808 809 809 810 811 813 814 815 816 817 817 818 820 818 814 811 809 807 808 811 810 805 807 817 820 808 805 812 814 814
798 799 801 801 802 802 802 803 803 801 802 802 804 804 805 806 807 808 809 809 810 811 812 813 813 813 814 815 813 810 807 806 806 804 801 811 799 793 811 801 806 808 806
798 799 801 801 801 801 802 801 801 800 800 799 799 800 800 801 802 802 804 805 805 806 806 807 808 809 809 809 809 807 804 804 803 802 796 798 803 802 803 797 802 803 800
799 800 801 801 801 801 802 801 800 800 799 798 798 798 797 798 798 798 799 800 800 801 801 801 802 802 803 805 805 804 804 802 801 802 798 792 788 789 789 793 796 797 794
800 801 801 802 801 801 800 800 800 799 798 797 796 795 794 794 794 794 795 795 796 796 796 796 796 796 796 797 799 799 799 800 797 795 794 795 792 789 789 789 790 786 787
801 801 801 801 801 801 800 799 798 797 796 795 794 793 792 791 789 790 791 791 791 791 790 790 789 788 790 790 791 792 793 794 794 791 789 785 787 790 789 785 783 782 784
801 801 801 801 800 800 799 798 797 796 795 793 792 791 790 789 788 787 787 787 786 784 784 783 783 782 782 782 782 782 783 785 785 786 785 783 783 785 788 786 783 780 778
801 801 800 800 799 798 797 796 795 793 792 791 789 788 786 785 784 784 783 783 781 780 778 777 776 775 775 775 777 776 776 775 777 778 779 778 779 781 782 783 782 780 776
800 799 799 799 798 797 795 793 792 791 789 786 785 783 782 780 779 779 778 778 776 774 772 771 770 768 767 770 770 769 769 768 768 768 768 770 773 775 776 778 777 777 770
798 798 798 798 797 795 794 792 790 789 786 783 781 779 777 776 774 773 773 773 770 767 765 763 761 761 761 763 763 762 762 760 762 762 762 763 764 766 769 769 770 769 764
799 799 798 797 795 794 792 790 788 786 784 781 779 777 775 773 769 768 768 766 765 762 759 756 753 752 751 752 753 754 754 755 755 756 756 756 757 758 759 758 759 761 759
797 797 796 796 794 792 790 787 785 783 779 777 774 772 769 766 763 762 762 761 760 759 756 753 750 747 747 747 747 747 747 748 749 749 748 747 748 747 747 745 742 745 747
796 795 794 792 790 788 786 784 781 779 776 774 772 771 768 765 763 760 759 756 755 754 753 749 746 743 741 740 740 740 741 742 742 741 739 737 739 738 738 736 736 738 734
796 794 792 790 789 786 785 781 778 776 774 773 771 769 768 765 762 759 756 753 752 750 747 744 742 739 736 734 733 732 732 733 733 730 729 729 729 729 729 729 734 735 736
794 792 790 789 786 785 783 782 780 778 776 774 771 769 766 763 760 758 755 752 749 746 742 740 735 732 728 726 724 724 725 725 724 724 723 722 722 721 719 722 726 729 728
793 791 789 788 786 784 782 779 778 775 773 771 768 765 763 761 756 753 750 746 743 740 736 733 728 723 719 717 717 716 716 715 714 714 714 713 712 714 714 715 718 719 718
792 792 789 788 786 784 781 779 776 772 769 766 765 764 761 758 754 749 743 738 734 734 729 727 722 717 713 710 708 707 706 706 705 705 705 703 702 703 705 706 708 711 709
790 788 786 784 784 783 782 779 776 773 770 767 764 763 760 756 750 745 740 733 728 724 722 719 714 709 705 703 702 699 698 698 698 697 697 696 690 693 693 693 693 693 694
787 786 786 782 780 780 777 776 773 772 770 768 764 760 757 751 747 743 739 736 731 725 721 715 708 704 702 699 696 694 694 693 692 691 690 689 688 689 687 686 683 681 682
784 786 785 781 778 776 774 772 769 768 769 768 764 760 756 751 748 744 740 736 732 727 721 715 709 704 699 694 691 689 687 686 685 685 684 684 684 683 682 680 679 677 676
784 783 783 780 779 777 775 771 769 767 765 764 763 763 762 757 753 749 743 738 734 728 722 716 709 702 695 689 687 685 682 676 678 679 677 677 677 677 676 675 674 673 673
786 784 782 781 780 777 775 771 769 767 765 764 762 762 761 758 754 750 745 740 735 731 725 720 712 706 699 693 689 684 682 678 675 673 673 673 672 672 671 670 669 668 667
784 783 782 781 780 777 773 771 768 768 766 764 763 761 760 758 754 750 746 742 737 731 726 721 714 708 702 697 694 690 686 682 678 675 673 671 668 667 666 665 664 663 662
782 783 782 780 779 776 773 771 768 767 766 764 763 762 759 756 753 751 747 743 739 733 728 723 718 712 706 702 697 692 686 683 678 672 668 665 664 663 661 660 660 658 656
779 780 780 779 777 776 773 771 769 766 766 764 763 760 758 755 753 751 748 743 739 734 729 725 720 716 710 704 697 691 683 681 678 669 664 662 659 657 655 653 651 649 648
776 776 777 776 776 775 773 771 769 766 765 763 762 760 757 754 752 750 747 743 738 733 730 727 723 719 713 707 702 695 689 681 673 666 660 655 652 650 649 646 643 640 637